Temp
61 61 60 60 60 60 60 60 60 60 60 60 60 59 59 59 59 57 52 63 63 66 69 73 77 78 79 69 76 73 66 62 66 66 72 78 78 84 85 83 86 86 86 86 85
60 60 60 60 60 59 59 60 59 59 60 60 59 59 58 58 55 51 62 64 66 69 72 73 72 77 70 66 69 70 63 65 72 74 75 77 77 78 81 82 83 83 83 83 84
60 60 60 60 60 59 59 59 59 59 59 60 59 58 58 58 49 57 67 65 67 70 75 77 77 74 67 63 61 70 63 70 71 76 77 77 77 80 78 78 82 82 81 82 83
60 60 60 60 60 59 59 59 59 59 59 59 59 58 57 55 52 71 72 67 69 72 74 74 73 69 66 56 62 60 70 68 72 76 76 75 78 77 78 81 85 85 86 84 82
59 59 59 59 59 59 59 59 58 58 58 58 58 58 56 46 51 71 72 71 71 70 72 72 70 69 63 63 61 55 66 68 73 75 76 77 75 76 78 84 87 85 85 86 85
59 59 59 59 59 59 58 58 57 57 57 58 58 58 50 45 71 72 72 70 70 71 72 74 72 74 68 65 64 68 69 68 72 73 75 72 75 74 80 84 84 83 84 87 85
58 58 58 58 58 58 58 58 57 57 57 58 59 58 50 55 70 71 70 69 72 75 70 76 77 74 68 62 70 69 64 67 68 72 72 74 69 70 79 82 81 82 83 83 84
58 58 58 58 58 58 58 58 57 58 57 58 59 56 49 66 68 68 72 68 73 77 77 77 79 73 69 70 66 64 64 60 68 68 73 73 64 74 77 77 79 80 83 83 85
58 57 58 58 58 58 57 57 57 58 58 59 56 52 51 69 64 72 74 67 72 75 77 78 76 70 68 63 58 59 55 57 64 69 69 68 64 74 77 76 77 79 81 81 84
58 57 57 57 57 57 56 57 57 59 58 59 58 47 59 64 70 71 74 73 70 70 69 69 68 63 62 60 50 55 54 57 60 65 68 66 68 73 75 75 76 77 79 77 78
58 57 57 56 57 56 55 55 52 48 53 53 56 56 64 71 75 70 74 72 70 66 60 64 60 56 60 61 63 62 59 58 61 67 66 65 66 72 71 74 76 76 73 73 75
57 57 57 56 56 56 55 49 56 57 52 55 56 57 63 68 65 68 75 67 63 57 61 60 56 63 65 63 62 60 57 57 61 64 64 65 65 69 72 72 74 74 75 74 77
56 56 56 56 56 53 51 52 62 59 53 57 56 59 65 67 66 65 71 68 63 59 60 58 61 64 63 59 59 58 57 57 58 61 64 61 61 64 70 70 72 73 72 72 70
56 56 55 55 51 53 49 57 59 59 49 54 56 63 66 68 65 74 76 71 65 60 61 62 64 61 60 59 61 54 62 62 59 57 53 60 52 59 65 68 69 69 69 69 69
55 55 55 55 53 49 58 57 59 56 37 58 58 73 69 67 68 66 75 71 62 60 62 58 60 59 58 60 63 60 63 61 59 55 55 55 54 59 60 64 65 65 66 67 68
55 55 54 54 52 57 59 62 56 46 38 54 62 60 62 66 66 68 70 73 69 63 62 62 66 66 64 64 65 64 60 57 55 55 48 55 55 56 60 60 63 63 65 66 68
55 54 52 57 53 61 59 56 47 39 57 54 56 61 62 60 62 64 62 61 58 52 53 58 60 65 66 61 62 61 57 49 47 47 47 51 52 58 58 59 62 63 65 68 70
53 52 53 56 59 60 60 53 39 50 50 59 61 61 57 61 60 61 59 56 59 60 54 51 48 59 63 62 60 58 58 50 39 42 49 50 49 55 60 62 64 65 66 69 70
52 56 54 57 59 60 56 45 45 50 54 49 59 55 55 59 60 59 58 58 61 61 53 50 49 60 61 63 63 55 54 56 48 45 47 53 53 57 60 60 63 65 66 67 69
49 53 60 61 60 60 54 45 51 55 53 56 50 55 48 54 55 55 55 58 57 60 63 56 48 56 59 63 61 59 59 50 51 38 38 47 48 55 54 57 60 62 63 65 68
51 56 63 62 60 60 47 50 54 58 55 54 54 52 54 52 54 52 52 56 59 56 60 58 55 50 57 53 53 55 54 51 52 50 42 42 50 57 59 60 59 61 64 65 67
48 51 63 63 55 54 48 51 50 54 60 57 59 57 55 54 52 52 51 55 61 60 56 53 52 47 47 52 55 55 52 53 44 43 45 44 47 59 61 61 60 62 63 66 66
45 46 64 62 48 47 50 50 50 57 59 58 55 57 57 53 48 52 53 56 59 58 55 55 48 43 43 50 53 50 49 49 47 45 43 41 49 58 59 60 61 62 62 63 63
47 47 56 58 56 49 46 47 51 60 56 56 55 58 55 52 54 51 51 53 56 56 54 56 47 47 44 46 48 45 47 49 47 38 44 44 50 55 59 60 63 64 62 61 61
51 48 48 48 51 51 51 47 52 52 57 57 55 55 54 49 50 48 52 53 55 53 52 54 45 47 46 47 47 47 47 48 45 48 42 49 47 54 57 59 61 61 60 59 60
47 43 49 49 50 50 49 48 52 51 54 52 53 51 53 51 53 49 51 52 52 53 51 49 43 46 44 46 45 43 48 48 48 48 47 48 47 59 60 61 58 58 58 58 59
50 51 47 48 49 49 50 53 49 54 54 56 54 52 50 50 54 55 54 54 55 52 48 48 45 43 40 43 43 41 47 49 49 50 50 45 53 58 56 56 57 58 59 59 59
MSLP
1017.41 1017.30 1017.07 1016.79 1016.57 1016.40 1016.21 1015.93 1015.72 1015.57 1015.44 1015.27 1014.98 1014.97 1015.33 1015.47 1015.47 1015.42 1014.16 1011.85 1012.14 1011.81 1011.95 1011.77 1011.65 1011.50 1010.57 1011.75 1012.44 1012.74 1011.63 1010.44 1009.60 1009.17 1008.33 1008.12 1007.41 1007.11 1006.88 1006.44 1006.03 1006.07 1006.20 1006.59 1007.20
1017.28 1017.06 1016.84 1016.52 1016.36 1016.13 1016.00 1015.84 1015.74 1015.52 1015.37 1015.20 1014.96 1015.06 1015.28 1015.37 1015.20 1014.05 1011.34 1011.40 1011.53 1011.50 1011.57 1011.06 1010.79 1010.75 1011.33 1012.67 1013.39 1012.60 1011.52 1010.49 1009.69 1009.19 1008.59 1008.26 1007.87 1007.52 1006.92 1006.58 1006.27 1006.40 1006.91 1007.16 1007.53
1017.17 1016.83 1016.54 1016.26 1016.07 1015.90 1015.82 1015.70 1015.55 1015.41 1015.19 1014.98 1014.86 1015.01 1015.14 1015.28 1014.72 1010.15 1008.62 1009.98 1010.61 1011.03 1010.77 1010.51 1010.21 1010.22 1011.20 1012.40 1013.46 1012.37 1011.43 1010.90 1009.77 1009.34 1008.91 1008.30 1007.97 1007.71 1007.24 1006.61 1006.82 1006.90 1007.00 1007.41 1007.68
1017.01 1016.70 1016.35 1016.11 1015.84 1015.60 1015.47 1015.43 1015.30 1015.20 1014.98 1014.76 1014.56 1014.82 1014.90 1015.17 1012.38 1008.13 1007.81 1008.86 1009.62 1010.48 1010.53 1010.21 1010.02 1010.14 1010.88 1011.86 1012.57 1012.58 1011.66 1011.26 1010.11 1009.50 1009.06 1008.50 1008.17 1007.57 1007.34 1006.76 1006.91 1007.15 1007.26 1007.35 1007.37
1016.92 1016.50 1016.19 1015.91 1015.63 1015.36 1015.06 1015.05 1015.00 1014.96 1014.86 1014.67 1014.53 1014.69 1014.81 1014.40 1011.15 1008.17 1007.95 1008.29 1009.69 1010.14 1009.84 1009.51 1009.40 1009.80 1010.18 1011.39 1012.68 1012.99 1011.15 1011.25 1010.46 1009.81 1009.34 1009.00 1008.39 1007.73 1007.16 1006.91 1006.91 1007.03 1007.04 1007.04 1006.97
1016.68 1016.38 1016.01 1015.66 1015.35 1015.10 1014.80 1014.66 1014.71 1014.70 1014.67 1014.56 1014.49 1014.66 1014.67 1012.71 1008.60 1008.12 1007.67 1008.24 1008.65 1009.19 1009.29 1009.25 1008.91 1009.31 1010.02 1010.47 1010.77 1010.68 1010.65 1010.50 1010.52 1009.67 1008.90 1008.79 1008.29 1007.99 1006.71 1006.58 1006.50 1006.85 1006.71 1006.79 1006.99
1016.37 1016.16 1015.87 1015.49 1015.13 1014.84 1014.56 1014.35 1014.29 1014.34 1014.41 1014.37 1014.35 1014.52 1013.78 1010.18 1008.42 1008.51 1008.37 1008.49 1008.44 1008.16 1008.45 1008.89 1008.84 1008.85 1009.49 1010.35 1010.39 1010.30 1010.12 1009.83 1009.60 1009.34 1008.84 1008.51 1007.85 1007.47 1006.59 1006.32 1006.30 1006.31 1006.51 1006.95 1007.03
1015.95 1015.73 1015.60 1015.28 1014.93 1014.56 1014.26 1014.02 1013.83 1013.84 1013.99 1014.06 1014.09 1014.13 1011.81 1009.03 1008.79 1008.56 1008.57 1008.75 1009.06 1008.78 1008.86 1009.16 1008.94 1008.94 1009.35 1009.80 1009.80 1009.73 1009.90 1009.34 1008.71 1009.04 1008.40 1008.20 1006.67 1006.57 1006.45 1006.41 1006.29 1006.37 1006.27 1006.33 1006.40
1015.60 1015.33 1015.16 1014.98 1014.62 1014.20 1013.96 1013.66 1013.35 1013.23 1013.56 1013.77 1013.93 1013.54 1010.12 1008.37 1008.21 1007.59 1008.05 1008.11 1008.71 1008.78 1009.05 1009.31 1009.09 1009.12 1009.29 1008.96 1009.21 1009.29 1009.04 1009.17 1008.51 1008.26 1007.92 1007.96 1007.16 1006.40 1006.52 1006.65 1006.45 1006.35 1006.40 1006.31 1006.15
1015.24 1014.87 1014.69 1014.53 1014.29 1014.01 1013.80 1013.39 1013.07 1012.95 1013.43 1013.68 1013.37 1013.19 1009.31 1007.31 1006.85 1007.12 1007.74 1008.13 1008.31 1008.58 1009.01 1009.27 1009.08 1009.00 1008.95 1008.30 1008.19 1008.12 1008.63 1008.53 1007.91 1008.03 1007.87 1007.71 1006.89 1006.38 1006.50 1006.56 1006.41 1006.28 1006.37 1006.41 1006.12
1014.97 1014.48 1014.20 1014.02 1013.89 1013.77 1013.76 1013.54 1013.40 1013.24 1012.63 1010.71 1010.09 1009.20 1007.51 1006.70 1006.43 1006.91 1007.33 1007.85 1008.28 1008.49 1008.27 1008.71 1008.45 1007.89 1007.73 1008.37 1008.29 1008.14 1008.48 1008.37 1008.06 1007.83 1007.71 1007.40 1006.98 1006.32 1006.68 1006.54 1006.30 1006.42 1006.60 1006.38 1006.07
1014.66 1014.22 1013.73 1013.46 1013.31 1013.30 1013.52 1012.98 1011.25 1011.22 1010.40 1009.38 1009.45 1008.68 1007.55 1007.04 1006.38 1006.82 1007.06 1006.99 1007.57 1007.75 1008.13 1008.42 1007.76 1008.13 1008.09 1008.37 1007.98 1008.13 1008.15 1008.15 1007.98 1007.86 1008.21 1007.49 1007.06 1006.74 1006.43 1006.32 1006.36 1006.62 1006.55 1006.65 1006.43
1014.40 1013.89 1013.36 1012.89 1012.69 1012.72 1012.38 1011.52 1010.80 1010.80 1009.87 1008.26 1008.02 1007.37 1006.45 1006.34 1005.76 1006.24 1006.49 1006.46 1006.83 1007.24 1007.43 1007.26 1007.41 1007.77 1007.84 1008.11 1008.37 1008.34 1008.18 1007.97 1007.87 1008.25 1008.13 1007.72 1007.26 1006.95 1006.70 1006.78 1006.96 1007.20 1007.63 1007.53 1007.35
1013.57 1013.58 1013.00 1012.47 1012.61 1011.96 1011.46 1010.40 1010.73 1011.38 1009.63 1007.40 1006.79 1005.35 1005.48 1005.16 1005.14 1005.24 1005.66 1005.62 1006.29 1006.64 1007.14 1007.12 1007.42 1007.26 1007.52 1007.85 1007.96 1007.96 1007.84 1007.91 1008.09 1008.23 1007.81 1007.90 1007.28 1007.18 1007.08 1006.98 1007.35 1007.75 1007.74 1007.86 1007.86
1012.88 1012.70 1012.55 1012.20 1011.87 1011.54 1010.27 1009.93 1010.44 1011.03 1008.39 1005.85 1005.22 1004.19 1004.36 1004.29 1004.22 1005.27 1005.18 1005.33 1005.73 1006.41 1006.92 1006.96 1007.05 1007.29 1007.36 1007.29 1007.72 1007.66 1007.90 1008.17 1008.27 1008.42 1008.49 1008.56 1008.04 1007.45 1007.71 1007.46 1007.84 1008.29 1008.58 1008.76 1008.55
1012.21 1011.76 1011.77 1011.37 1011.37 1010.24 1010.01 1009.77 1010.34 1009.45 1006.37 1004.71 1003.99 1003.95 1004.03 1003.80 1003.95 1004.72 1004.90 1005.16 1005.94 1006.31 1006.72 1006.85 1006.90 1006.70 1006.64 1007.18 1007.56 1007.91 1008.17 1008.55 1008.78 1008.58 1008.27 1008.06 1008.04 1007.71 1008.10 1008.47 1008.57 1008.90 1008.93 1009.02 1008.81
1011.53 1010.76 1010.95 1010.54 1009.58 1009.16 1009.79 1009.93 1009.26 1007.58 1005.45 1004.24 1003.63 1003.50 1003.37 1003.61 1003.91 1004.21 1004.67 1005.13 1005.48 1006.11 1006.50 1006.85 1006.84 1006.86 1006.88 1007.07 1007.56 1007.62 1007.71 1008.09 1008.37 1008.14 1008.13 1008.59 1008.46 1008.03 1008.85 1009.11 1009.15 1009.24 1009.22 1009.12 1008.92
1010.48 1009.48 1008.96 1009.21 1008.77 1009.06 1009.01 1008.86 1007.55 1005.88 1005.45 1004.43 1003.47 1003.41 1003.38 1003.57 1003.88 1004.28 1004.74 1005.24 1005.88 1006.04 1006.57 1006.70 1007.27 1007.22 1007.26 1007.12 1007.18 1007.81 1007.89 1007.99 1008.15 1008.48 1008.55 1009.10 1008.35 1008.63 1009.43 1009.72 1009.85 1009.79 1009.65 1009.36 1009.07
1009.60 1008.84 1008.92 1007.89 1008.54 1008.74 1008.54 1007.59 1006.58 1005.93 1005.52 1005.24 1003.66 1003.40 1003.45 1003.73 1003.95 1004.34 1004.79 1005.21 1005.77 1005.99 1006.21 1006.78 1007.39 1007.89 1007.69 1007.53 1007.81 1008.22 1008.43 1009.19 1008.98 1009.97 1009.23 1008.44 1008.78 1009.54 1009.79 1009.74 1009.86 1009.79 1009.55 1009.56 1009.41
1009.79 1008.68 1007.52 1007.03 1007.89 1007.98 1007.75 1006.89 1006.09 1005.86 1005.65 1005.14 1004.28 1004.07 1004.06 1003.98 1004.18 1004.68 1005.28 1005.92 1006.17 1006.47 1006.43 1007.12 1007.66 1008.38 1008.29 1008.23 1008.48 1008.19 1009.11 1009.38 1009.48 1009.48 1009.07 1008.58 1008.62 1008.07 1009.23 1009.53 1009.91 1009.75 1009.92 1009.95 1009.74
1009.63 1008.14 1006.93 1006.94 1007.77 1007.28 1007.17 1006.62 1006.22 1006.03 1006.04 1005.08 1004.02 1003.89 1004.26 1004.52 1004.85 1005.54 1006.03 1006.47 1006.51 1007.00 1007.07 1007.38 1007.83 1009.04 1008.92 1009.19 1009.05 1009.40 1009.35 1009.94 1010.11 1010.10 1009.45 1008.75 1008.24 1008.63 1008.66 1009.47 1009.85 1010.04 1010.23 1010.26 1009.90
1010.01 1007.97 1006.92 1007.07 1007.14 1007.00 1007.10 1006.82 1006.62 1006.08 1005.44 1005.09 1004.34 1004.06 1004.35 1005.03 1005.62 1006.15 1006.80 1007.14 1007.11 1007.09 1007.46 1008.41 1008.68 1009.28 1010.15 1010.63 1010.60 1010.19 1010.17 1010.26 1010.51 1010.86 1010.64 1010.12 1009.07 1009.26 1009.33 1009.73 1010.11 1010.19 1010.29 1010.21 1010.16
1010.56 1008.45 1006.77 1006.70 1006.50 1006.76 1007.32 1007.14 1007.28 1005.66 1004.56 1004.79 1004.95 1004.94 1004.91 1005.26 1006.16 1006.83 1007.30 1007.98 1007.79 1007.76 1008.07 1008.55 1009.33 1009.95 1010.74 1011.19 1011.07 1010.76 1011.12 1011.33 1011.41 1011.53 1010.71 1010.42 1009.38 1009.75 1009.93 1009.99 1010.08 1010.01 1010.32 1010.34 1010.34
1010.94 1008.90 1007.07 1006.73 1006.64 1006.73 1006.82 1006.53 1006.00 1005.39 1005.22 1005.13 1005.04 1004.81 1005.11 1005.79 1006.28 1006.94 1007.62 1008.34 1008.30 1008.45 1008.70 1008.85 1009.72 1009.88 1010.27 1010.72 1011.20 1011.45 1011.68 1011.85 1011.83 1011.89 1010.92 1010.47 1009.81 1009.85 1009.75 1009.70 1009.46 1009.53 1010.33 1010.59 1010.73
1010.57 1009.69 1008.92 1007.41 1007.04 1006.57 1006.57 1006.68 1005.55 1005.40 1005.10 1004.88 1005.15 1005.27 1005.56 1006.33 1006.91 1007.48 1008.06 1008.48 1008.95 1009.24 1009.47 1009.76 1010.37 1010.87 1011.35 1011.65 1011.82 1011.80 1011.85 1012.00 1011.94 1011.65 1011.44 1010.33 1010.41 1009.98 1009.86 1009.72 1009.72 1010.10 1010.45 1010.71 1010.92
1010.88 1010.64 1009.57 1008.34 1007.43 1006.69 1006.21 1006.04 1005.72 1005.78 1005.50 1005.39 1005.47 1006.30 1006.37 1006.74 1007.12 1007.64 1008.02 1008.51 1008.86 1009.70 1010.12 1010.73 1011.26 1011.55 1011.77 1012.19 1012.25 1011.98 1011.74 1011.79 1011.79 1011.67 1011.35 1010.95 1010.32 1009.89 1009.68 1009.74 1009.90 1010.14 1010.55 1010.76 1011.05
1011.78 1011.32 1010.72 1008.66 1007.65 1007.03 1006.36 1005.82 1006.05 1006.24 1006.42 1006.14 1006.24 1006.74 1007.38 1008.17 1008.20 1008.43 1008.75 1008.95 1009.18 1009.73 1010.55 1011.05 1011.53 1012.01 1012.14 1012.58 1012.33 1011.35 1010.59 1010.76 1010.93 1011.01 1010.89 1010.29 1009.80 1009.88 1009.93 1010.08 1010.26 1010.48 1010.76 1010.90 1011.16
Wind_Speed
13 13 12 12 11 11 11 11 12 9 10 8 6 5 6 8 10 11 18 14 15 15 6 7 11 9 13 5 4 1 3 7 7 5 2 1 3 3 4 6 4 4 3 3 15
13 12 13 11 10 10 11 11 10 10 9 7 4 4 4 7 10 20 21 19 20 9 8 17 18 17 8 5 4 8 7 10 4 4 6 3 2 5 5 6 2 2 6 10 14
13 13 12 12 10 9 10 10 10 11 9 5 4 3 1 3 6 14 17 30 23 17 7 9 14 13 11 6 5 8 13 10 6 9 5 4 4 2 4 0 5 6 1 8 11
14 14 14 13 13 11 8 9 9 10 10 7 2 3 2 2 6 1 1 27 23 16 8 11 15 15 13 10 10 11 15 8 9 5 4 7 3 6 5 7 4 8 4 8 11
14 14 14 13 13 13 10 8 9 9 8 7 3 5 3 3 15 7 11 20 20 17 14 14 21 15 16 13 11 19 17 12 13 24 14 6 10 8 10 11 12 9 7 7 10
14 15 15 14 13 12 12 8 7 8 7 7 5 6 3 8 4 12 3 21 21 21 18 14 15 10 13 14 21 12 16 17 16 15 10 8 10 6 8 9 10 5 7 8 9
13 14 14 14 14 14 13 10 8 7 7 8 8 6 6 17 2 8 9 12 22 19 21 13 11 9 10 6 12 8 7 10 13 13 9 5 10 11 15 7 9 9 6 7 10
15 12 12 13 15 15 14 13 11 9 8 8 10 5 10 4 4 7 5 10 14 11 14 7 7 5 3 5 5 12 5 10 7 12 8 10 16 7 1 3 7 5 7 8 11
16 13 13 14 15 15 13 14 13 9 8 9 7 4 11 7 5 9 7 15 13 9 8 6 4 6 4 7 4 3 8 9 5 13 4 9 4 4 2 4 8 7 6 9 12
17 14 14 13 14 13 10 12 4 5 7 5 3 4 8 2 4 10 5 20 10 11 11 9 5 6 4 7 12 12 8 5 9 5 6 6 5 8 3 2 5 6 7 9 11
19 16 14 12 12 10 4 2 2 3 7 11 7 5 3 6 9 6 8 15 9 6 8 9 9 16 18 11 5 7 5 8 3 4 1 6 5 7 1 6 5 5 6 9 8
20 19 16 13 12 9 4 5 5 4 7 21 7 11 8 4 4 11 17 8 13 14 7 9 12 9 9 7 4 4 3 5 2 3 5 3 6 7 7 4 2 6 8 10 11
20 19 16 15 10 4 10 14 2 11 5 3 9 7 6 10 7 15 16 9 14 12 11 12 5 10 7 6 7 4 6 5 6 1 3 1 4 4 2 2 1 4 6 7 11
19 19 16 14 5 2 5 6 15 5 3 6 7 7 7 6 5 10 14 7 4 9 8 7 5 12 7 8 7 6 10 10 8 3 5 2 2 3 3 4 1 8 11 12 12
18 18 16 8 3 4 1 3 7 5 4 8 5 4 7 6 14 7 6 4 9 8 6 5 9 10 7 9 10 5 5 9 5 7 4 4 4 3 2 5 4 10 11 10 10
22 18 15 6 5 8 2 6 2 5 3 4 6 7 9 4 4 7 9 5 3 6 1 5 1 3 3 6 10 10 5 4 3 3 7 5 6 4 4 1 1 6 8 10 11
28 23 11 5 4 5 7 4 4 4 4 7 7 9 12 7 7 9 14 11 7 8 9 3 2 1 2 5 3 4 5 4 5 6 4 2 5 3 2 2 5 8 10 12 12
31 25 4 11 7 2 3 4 4 1 3 7 7 13 10 10 4 8 15 12 3 5 6 9 7 2 2 4 5 4 4 4 5 4 2 2 5 5 6 8 8 7 6 8 10
24 1 3 5 8 5 3 3 2 3 6 4 2 12 8 8 6 6 11 14 7 6 5 7 5 1 4 2 2 5 5 3 5 2 4 4 2 5 8 8 8 8 11 10 10
6 4 3 6 14 3 3 4 3 1 4 4 9 11 9 5 7 4 7 4 7 2 1 5 6 2 3 1 11 1 8 4 2 5 7 5 5 5 13 12 6 6 10 11 10
3 1 3 8 6 2 4 4 2 2 7 5 1 4 12 8 5 2 2 3 2 3 2 4 2 3 3 4 3 5 4 4 2 2 4 5 4 2 11 10 4 4 9 10 11
5 1 3 6 3 3 4 3 4 6 11 7 5 5 4 6 6 5 7 1 1 4 6 2 4 4 3 4 4 1 2 4 4 6 3 3 5 3 8 5 1 6 9 11 8
6 3 1 3 4 3 2 5 7 4 3 8 7 3 1 4 7 2 5 3 1 3 6 6 2 6 4 4 2 1 2 3 6 2 7 5 2 3 6 7 3 9 11 8 8
3 2 0 1 1 7 6 7 7 8 2 3 3 3 4 4 6 6 6 5 3 6 10 5 3 2 5 4 3 4 6 6 4 3 4 10 11 7 8 11 15 16 9 4 5
0 2 2 2 2 3 2 3 5 3 2 3 4 4 5 4 4 5 4 5 7 4 5 3 4 2 4 5 2 3 6 9 11 10 8 9 9 13 15 16 15 12 7 3 0
4 4 4 4 4 2 5 7 3 1 3 2 6 4 3 5 2 7 6 2 3 4 3 3 4 2 2 2 3 8 11 12 14 14 16 17 18 15 14 11 11 4 3 3 3
2 1 2 4 3 2 2 1 11 6 6 5 11 7 11 6 8 10 6 6 6 5 4 3 6 3 1 2 4 11 11 14 8 9 9 10 8 8 7 5 4 3 5 8 7
Wind_Direction
335 334 331 327 326 324 325 331 326 313 298 289 290 302 295 292 285 262 238 220 201 244 188 162 170 177 83 57 343 294 234 234 224 210 229 182 2 350 304 306 323 355 330 11 134
335 331 327 326 328 327 325 322 325 319 298 283 297 304 294 301 284 263 243 227 231 228 190 177 175 168 117 89 293 229 233 240 238 231 257 263 19 326 325 346 352 12 59 123 145
326 327 324 327 322 322 326 321 321 314 304 280 221 238 289 324 284 247 219 209 217 208 212 208 174 156 170 125 183 242 245 264 247 235 241 268 314 329 328 38 52 17 77 156 165
328 326 326 325 324 319 322 317 315 311 310 311 216 137 111 110 236 57 228 196 192 186 182 176 174 168 178 175 187 261 240 266 314 262 241 274 307 297 270 257 312 324 295 187 184
326 327 323 317 315 316 312 313 315 310 305 299 190 149 138 222 253 285 324 181 181 171 177 169 167 170 180 178 153 226 232 256 261 270 269 257 258 266 262 267 283 286 246 232 204
333 332 326 320 315 313 314 305 300 299 291 280 191 167 171 244 247 323 181 152 171 172 183 174 177 181 167 176 200 206 219 199 251 253 267 249 251 195 266 261 272 235 245 246 235
328 325 330 324 321 317 312 311 293 287 275 258 187 189 230 247 262 14 120 168 173 177 178 192 173 183 129 136 206 192 183 217 224 250 244 238 236 203 244 272 265 279 269 219 239
321 322 319 317 314 313 312 309 302 283 258 235 190 208 254 237 300 203 148 140 168 163 180 174 153 147 185 147 122 183 212 219 194 203 233 195 258 246 182 220 255 265 284 267 241
320 319 318 317 312 308 309 309 301 271 219 204 174 219 264 308 224 207 178 148 153 132 163 157 172 182 182 167 141 169 190 205 210 195 144 201 209 229 351 241 253 247 269 281 271
321 320 317 313 309 309 318 321 334 142 155 168 218 256 248 215 163 136 138 147 148 131 120 167 184 190 183 180 192 179 200 211 197 153 172 182 222 277 278 222 254 272 280 287 268
317 320 317 310 305 302 333 310 179 169 220 206 185 251 312 340 134 141 144 140 138 159 164 173 187 197 193 194 193 173 189 197 184 156 237 201 254 270 256 244 252 287 323 327 293
313 316 316 306 295 279 204 232 240 6 267 225 243 260 279 275 141 144 159 147 154 174 159 157 202 194 165 172 157 163 202 230 256 249 211 228 248 282 283 271 305 336 344 347 339
314 316 312 305 303 248 217 224 246 12 256 180 195 225 238 175 166 170 181 144 162 161 177 171 186 159 157 156 175 189 220 232 248 76 220 242 235 229 222 258 145 23 3 7 355
320 318 310 310 280 201 235 254 236 257 270 173 197 232 179 207 144 155 183 157 151 157 157 180 123 160 157 179 184 210 216 231 237 202 251 289 266 238 233 256 126 21 10 4 2
316 314 307 280 291 230 2 281 141 186 181 144 155 131 151 186 134 169 179 128 158 145 185 147 173 161 180 197 184 220 172 211 226 197 188 169 240 198 270 218 45 14 10 19 20
316 313 313 260 207 236 124 85 169 230 166 167 137 158 162 174 113 130 165 91 105 131 90 133 190 175 150 146 184 146 127 93 110 158 232 190 231 183 171 169 58 32 37 32 36
317 315 291 194 210 156 184 164 181 228 307 148 161 159 171 162 125 145 170 168 165 162 177 157 175 41 163 157 147 166 168 186 211 214 253 73 232 293 128 62 103 84 63 56 52
321 315 210 206 212 231 157 216 247 132 116 274 159 161 177 163 133 150 161 178 132 147 159 187 183 217 131 218 194 185 212 213 221 219 233 157 234 113 110 119 113 93 72 47 35
323 6 196 213 200 177 199 230 223 344 117 310 130 157 142 160 135 144 179 182 173 177 162 168 162 80 61 128 221 149 198 51 120 79 248 239 165 136 153 130 116 74 47 25 13
320 312 254 123 167 168 233 262 346 89 46 252 187 186 183 171 142 135 165 167 161 204 274 162 139 81 120 240 54 337 129 157 144 217 241 206 251 250 184 169 144 74 28 9 356
285 283 32 135 182 207 251 243 356 89 204 283 330 110 159 191 125 133 279 19 133 110 121 130 175 132 214 20 146 149 161 73 79 251 253 266 232 328 188 167 142 25 359 349 338
314 191 100 167 171 167 230 119 12 273 255 273 331 40 121 150 132 132 143 131 154 141 144 77 109 121 87 9 270 30 140 179 207 192 230 295 268 352 172 153 322 335 346 349 338
318 285 139 220 207 134 233 145 260 249 274 161 204 208 68 110 102 106 110 20 24 114 150 171 104 143 157 165 106 148 112 102 97 63 218 238 220 129 218 257 278 329 348 12 36
296 304 325 176 12 138 214 216 216 194 146 151 163 94 113 80 48 131 117 40 34 90 67 93 102 212 247 78 128 172 167 160 148 185 236 234 267 266 274 281 302 323 342 6 41
220 27 67 278 126 146 178 311 316 164 113 39 83 84 123 107 82 103 113 130 68 29 59 65 110 114 110 122 163 219 221 213 233 244 241 279 269 279 284 288 294 315 298 207 354
355 353 345 281 292 201 159 217 179 192 343 78 123 87 63 123 150 170 139 134 136 69 72 26 109 110 114 141 238 267 254 245 243 249 254 264 277 281 289 287 292 296 234 261 293
348 271 279 303 335 258 182 228 149 176 39 42 125 103 83 78 82 80 68 80 125 134 112 97 137 133 197 53 334 274 264 231 232 231 249 257 266 291 282 253 263 272 268 281 288